Location: Utrecht
(52.0917°N, 5.1178°E)
Time: 01:49:51
(UTC+02:00)

X-37B - Pass Details

Date: 27 June 2021
Orbit: 383 x 392 km, 45.0° (Epoch: 01 July)

Event Time Altitude Azimuth Distance (km) Brightness Sun altitude
Rises 23:25:20 0° 250° (WSW) 2,256 4.6 -8.9°
Reaches altitude 10° 23:27:39 10° 235° (SW) 1,402 3.4 -9.0°
Maximum altitude 23:30:12 23° 180° (S) 879 1.9 -9.2°
Enters shadow 23:32:10 13° 134° (SE) 1,215 2.5 -9.4°
